Retour au catalogue

STARLINK-31483

ActifCommunicationsVLEO
NORAD 59411·PAYLOAD·🇺🇸 United States

Lancé Apr 5, 2024 depuis Cape Canaveral Space Force Station

Loading…

Prochains Passages (prochaines 24 heures)

TLE

FraisSource: CelesTrak SupGP

Époque: Sep 14, 2026, 22:32 UTC

1 59411C 24064P   26257.93937500  .00059427  00000+0  21526-2 0  2575
2 59411  43.0018  67.5112 0001281 274.1531 231.0114 15.27547202    13

Suivez STARLINK-31483 en temps réel avec AllMySat

Download on the App Store